Regional Weather Roundup
Issued by NWS Northern Indiana

Home | Current Version | Previous Version | Text Only | Print | Product List | Glossary Off
Versions: 1 2 3 4 5 6 7 8 9 10 11 12 13 14 15 16 17 18 19 20 21 22 23 24 25 26 27 28 29 30 31 32 33 34 35 36 37 38 39 40 41 42 43 44 45 46 47 48 49 50

000
ASUS43 KIWX 270800
RWRIWX

KIWX WEATHER ROUNDUP
NATIONAL WEATHER SERVICE NORTHERN INDIANA
400 AM EDT WED MAY 27 2015

NOTE: "FAIR" INDICATES FEW OR NO CLOUDS BELOW 12,000 FEET WITH NO
SIGNIFICANT WEATHER AND/OR OBSTRUCTIONS TO VISIBILITY.

* THESE STATIONS ARE NOT UNDER NWS QUALITY CONTROL. THEY ALSO MAY NOT
  REPORT WEATHER SUCH AS PRECIPITATION OR FOG.

INZ001>027-270900-
NORTHERN INDIANA

CITY           SKY/WX    TMP DP  RH WIND       PRES   REMARKS
SOUTH BEND     CLEAR     68  59  73 SW14G24   29.89F
GOSHEN         CLEAR     65  59  81 S14       29.92S
ANGOLA*        CLEAR     63  54  72 S5        29.94S
FORT WAYNE     PTCLDY    64  59  83 SW10      29.97S
PERU/GRISSOM   CLEAR     66  60  82 SW14      29.94F

$$
INZ028>050-270900-
CENTRAL INDIANA

CITY           SKY/WX    TMP DP  RH WIND       PRES   REMARKS
LAFAYETTE      CLEAR     65  60  84 SW7       29.95R
KOKOMO*        CLEAR     66  59  77 SW16G22   29.96F
MUNCIE*        PTCLDY    66  60  81 SW9       30.00S
INDIANAPOLIS   CLEAR     64  59  83 S8        29.98F

$$
MIZ043>046-050>051-056>058-064>065-071>073-077>080-270900-
SOUTHWEST LOWER MICHIGAN

CITY           SKY/WX    TMP DP  RH WIND       PRES   REMARKS
BATTLE CREEK   CLEAR     66  60  81 S13       29.89F
BENTON HARBOR  CLOUDY    68  59  73 SW14G24   29.85F
COLDWATER*     CLEAR     64  59  82 S6        29.92F
HILLSDALE*     PTCLDY    65  62  90 SW7       29.94S
HOLLAND        CLOUDY    69  61  75 SW20G30   29.84F
GRAND RAPIDS   CLOUDY    67  61  81 S12       29.84F
KALAMAZOO      CLEAR     66  59  78 S14       29.88F
STURGIS*       CLEAR     64  61  88 S10       29.91F
THREE RIVERS*  FAIR      65  60  81 SW9       29.90F

$$
OHZ001>008-015>018-024>025-270900-
NORTHWEST OHIO

CITY           SKY/WX    TMP DP  RH WIND       PRES   REMARKS
DEFIANCE       PTCLDY    67  60  78 S9        29.96S
FINDLAY        PTCLDY    68  64  87 S13       29.98S
TOLEDO EXPRESS PTCLDY    67  64  90 SW8       29.95S
TOLEDO METCALF MOCLDY    68  64  87 S10       29.96S
LIMA           PTCLDY    66  64  93 S10       30.00S

$$
AND FOR LAKE MICHIGAN COASTAL AND OPEN LAKE BUOY OBSERVATIONS

STATION/POSITION TEMP    WIND        PRES    VSBY  WAVE
                 AIR SEA DIR/SP/G                  HT/PER
                 (F)     (DEG/KT/KT) (MB)    (MI)  (FT/S)
CALUMET HARBOR           200/ 11/ 13   N/A
MICHIGAN CITY     69     170/ 16/ 19   N/A
BURNS HARBOR      69     210/ 14/ 18 1011.9S
SAINT JOSEPH      70     180/ 15/ 25 1011.5S
SOUTH LAKE BUOY   45 38  190/ 10/ 10 1010.2R
4 MI NW BRIDGMAN  64 55  240/ 17/ 21   N/A           3/ 4
MICHIGAN CITY     63 52  220/ 14/ 19   N/A           2/ 3

$$
&&


USA.gov is the U.S. government's official web portal to all federal, state and local government web resources and services.